Regional Weather Roundup
Issued by NWS

Home | Current Version | Previous Version | Graphics & Text | Print | Product List | Glossary On
Versions: 1 2 3 4 5 6 7 8 9 10 11 12 13 14 15 16 17 18 19 20 21 22 23 24 25 26 27 28 29 30 31 32 33 34 35 36 37 38 39 40 41 42 43 44 45 46 47 48 49 50
000
ASUS43 KMPX 251001
RWRMN
WEATHER ROUNDUP FOR MINNESOTA
NATIONAL WEATHER SERVICE TWIN CITIES/CHANHASSEN MN
500 AM CDT MON JUL 25 2016


NOTE: "FAIR" INDICATES FEW OR NO CLOUDS BELOW 12,000 FEET WITH NO
SIGNIFICANT WEATHER AND/OR OBSTRUCTIONS TO VISIBILITY. N/A MEANS
CURRENT SKY AND/OR WEATHER CONDITIONS ARE NOT AVAILABLE.

MNZ060>063-068>070-251100-
   Twin Cities Metro

CITY           SKY/WX    TMP DP  RH WIND       PRES   REMARKS
TWIN CITIES    PTCLDY    68  61  78 NW3       30.01S
ST PAUL        PTCLDY    68  60  75 CALM      30.01S
CRYSTAL        CLEAR     65  58  78 W3        30.00S
BLAINE         PTCLDY    66  63  88 CALM      30.01S
LAKEVILLE      CLEAR     63  63 100 CALM      30.02S
EDEN PRAIRIE   CLEAR     66  61  84 NW5       30.00F
LAKEVILLE      CLEAR     63  63 100 CALM      30.02S
SOUTH ST PAUL  PTCLDY    67  62  82 CALM      30.01S
LAKE ELMO      FAIR      63  59  88 CALM      30.02S
$$
MNZ001>005-007-008-013>017-022>024-027-028-251100-
   Northwest Minnesota

CITY           SKY/WX    TMP DP  RH WIND       PRES   REMARKS
HALLOCK        CLEAR     57  57 100 CALM      29.97R
ROSEAU         CLEAR     61  55  82 W3        29.97R
WARROAD        CLEAR     61  55  82 W5        29.97R
THIEF RVR FALL CLEAR     59  58  96 CALM      30.01R
CROOKSTON      CLEAR     61  57  88 W3        30.00S
FOSSTON        CLEAR     54  54 100 CALM      30.02R
DETROIT LAKES  CLEAR     64  57  77 NW3       30.04S
MOORHEAD       CLEAR     61  57  88 W3        30.02S
PARK RAPIDS    CLEAR     59  55  87 CALM      30.01S
MAHNOMEN       FAIR      57  55  95 SW5       30.02R
$$
MNZ006-009>011-018-025>026-251100-
   North Central Minnesota

CITY           SKY/WX    TMP DP  RH WIND       PRES   REMARKS
BAUDETTE       CLEAR     59  57  93 W6        29.96R
FLAG ISLAND    CLEAR     63  59  88 W6        29.93S
INTL FALLS     CLEAR     59  58  96 W5        29.95R
WASKISH        CLEAR     66  63  88 NW7       29.98R
BIG FORK       FOG       55  55 100 CALM      29.98R VSB 1/2
LONGVILLE      CLEAR     61  59  94 W3        30.00R
GRAND RAPIDS   CLEAR     60  59  96 CALM      30.00R
ORR            CLEAR     57  54  88 CALM      29.94S
COOK           CLEAR     57  55  94 CALM      29.97R
WALKER         FAIR      60  57  89 W6        30.00S
$$
MNZ012-019>021-037-251100-
   Northeast Minnesota

CITY           SKY/WX    TMP DP  RH WIND       PRES   REMARKS
DULUTH         CLEAR     62  60  93 NW8       29.96S
ELY            CLEAR     59  55  88 W5        29.95R
HIBBING        CLEAR     57  57 100 CALM      29.97R
EVELETH        CLEAR     60  58  92 W3        29.98R
DULUTH HARBOR  CLEAR     66  63  88 SW5       29.96R
TWO HARBORS    CLEAR     63  57  82 CALM      29.92S
SILVER BAY     CLEAR     63  59  88 CALM      29.91R
GRAND MARAIS     N/A     67  57  70 VRB3      29.85R
G MARAIS ARPRT CLEAR     61  54  77 W8        29.90R
$$
MNZ029>031-032-039>041-046>048-054>057-064-251100-
   West Central Minnesota

CITY           SKY/WX    TMP DP  RH WIND       PRES   REMARKS
FERGUS FALLS   CLEAR     61  61 100 CALM      30.04S
WHEATON        CLEAR     63  61  94 W3        30.06R
MORRIS         CLEAR     61  59  94 CALM      30.03S
ALEXANDRIA     CLEAR     62  58  86 W3        30.05S
ELBOW LAKE     FAIR      61  58  92 NW3       30.04S
WADENA         CLEAR     59  57  94 W3        30.02S
GLENWOOD       CLEAR     61  57  88 W6        30.04S
APPLETON       CLEAR     61  57  88 CALM      30.03S
BENSON         CLEAR     57  55  94 CALM      30.04S FOG
ORTONVILLE     CLEAR     66  57  72 CALM      30.04S
MADISON        CLEAR     61  57  88 CALM      30.03F
WILLMAR        FAIR      61  61 100 W3        30.05S
$$
MNZ033>034-036-042>043-049>051-058-059-251100-
   Central Minnesota

CITY           SKY/WX    TMP DP  RH WIND       PRES   REMARKS
ST CLOUD       CLEAR     60  59  96 CALM      30.01R
SAUK CENTRE    FAIR      58  57  96 CALM      30.04R
PAYNESVILLE    CLEAR     57  57 100 W6        30.04S
AITKIN         CLEAR     64  57  77 W5        29.99S
PINE RIVER     CLEAR     61  59  94 CALM      30.04S
BRAINERD       CLEAR     64  59  83 W6        30.01R
STAPLES        CLEAR     59  57  94 W3        30.02S
LONG PRAIRIE   FAIR      63  59  88 SW5       30.04R
LITTLE FALLS   CLEAR     57  55  94 CALM      30.02R
LITCHFIELD     CLEAR     64  63  94 CALM      30.03F
BUFFALO        CLEAR     64  59  84 W3        30.02F
MAPLE LAKE     CLEAR     64  61  88 CALM      30.03S
HUTCHINSON     CLEAR     62  61  95 W6        30.03F
$$
MNZ037-044-045-052-053-251100-
   East Central Minnesota

CITY           SKY/WX    TMP DP  RH WIND       PRES   REMARKS
PRINCETON      CLEAR     61  57  88 CALM      30.01S
MORA           CLEAR     61  55  82 NW5       30.01S
CAMBRIDGE      PTCLDY    64  55  72 CALM      29.99R
RUSH CITY      PTCLDY    63  58  86 W3        30.00R
MOOSE LAKE     CLEAR     61  59  94 W3        29.96S
HINCKLEY       FAIR      61  61 100 CALM      29.99R
CLOQUET        CLEAR     63  57  82 W7        29.98R
MCGREGOR       CLEAR     63  59  88 W5        30.00R
$$
MNZ071>073-080-081-089-090-097-098-251100-
   Southwest Minnesota

CITY           SKY/WX    TMP DP  RH WIND       PRES   REMARKS
MONTEVIDEO     CLEAR     63  57  82 NW5       30.05F
GRANITE FALLS  CLEAR     62  60  95 SW7       30.05S
CANBY          CLEAR     65  59  80 SW5       30.05F
MARSHALL       CLEAR     63  59  87 W9        30.05S
REDWOOD FALLS  CLEAR     64  59  83 W6        30.03S
OLIVIA         CLEAR     59  55  88 NW3       30.02F
PIPESTONE      CLEAR     64  59  82 CALM      30.09R
WINDOM         CLEAR     63  59  88 CALM      30.06S
WORTHINGTON    CLEAR     60  58  92 W5        30.08S
JACKSON        CLEAR     61  57  88 W3        30.07S
TRACY          CLEAR     66  61  83 W5        30.06S
SLAYTON        CLEAR     63  59  89 W6        30.09R
$$
MNZ065>067-074>077-082>085-091>093-251100-
   South Central Minnesota

CITY           SKY/WX    TMP DP  RH WIND       PRES   REMARKS
MANKATO        CLEAR     64  59  82 W3        30.03S
NEW ULM        CLEAR     61  61 100 SW5       30.03F
ST JAMES       CLEAR     57  55  94 CALM      30.06R
FAIRMONT       CLEAR     63  55  77 CALM      30.04F
GLENCOE        CLEAR     64  62  94 W7        30.01F
FARIBAULT      CLEAR     61  61 100 CALM      30.03F
OWATONNA       CLEAR     61  57  88 CALM      30.04S
WASECA         FOG       59  59 100 CALM      30.05S VSB 3/4
ALBERT LEA     CLEAR     63  63 100 CALM      30.05S
$$
MNZ078>079-086>088-094>096-251100-
   Southeast Minnesota

CITY           SKY/WX    TMP DP  RH WIND       PRES   REMARKS
ROCHESTER      CLEAR     63  62  97 W6        30.04S
RED WING       CLEAR     63  61  94 CALM      30.00S
STANTON        PTCLDY    63  59  88 CALM      30.01S
DODGE CENTER   CLEAR     61  59  94 W3        30.04S
WINONA         CLEAR     66  63  88 W3        30.00S
AUSTIN         CLEAR     63  61  94 CALM      30.04S FOG
PRESTON        CLEAR     63  60  90 NW7       30.04S
$$
ABBREVIATIONS USED IN REMARKS
   TC - TEMPERATURES IN CELSIUS
  WCI - WIND CHILL INDEX
   HX - HEAT INDEX
  VSB - VISIBILITY
$$




USA.gov is the U.S. government's official web portal to all federal, state and local government web resources and services.